AUA545 EGKK-LOWW

Flight info

Callsign AUA545
Flight time N/A
Altitude 39000
Route ODVIK DVR UL9 KONAN UL607 KOK DCT LNO DCT MATUG DCT GUBAX DCT BOREP DCT ENITA DCT ETVIS DCT BUDEX BUDEX2W
Aircraft B772/H-SDE2E3FGHIJ5LORVWXY/LB1D1

Departure

Time N/A
Airport London Gatwick Airport (EGKK)

Arrival

Time 2026-04-25 18:12
Airport Vienna International Airport (LOWW)
Time Latitude Longitude Altitude Speed Heading
2026-04-25 18:05 48.00055 16.36984 4042 ft 281 kts 124°
2026-04-25 18:05 47.98942 16.39345 4030 ft 276 kts 125°
2026-04-25 18:05 47.97832 16.41692 4041 ft 279 kts 125°
2026-04-25 18:05 47.96709 16.44066 4055 ft 281 kts 125°
2026-04-25 18:06 47.95574 16.46469 4047 ft 285 kts 125°
2026-04-25 18:06 47.94433 16.48880 4040 ft 285 kts 125°
2026-04-25 18:06 47.93304 16.51261 4020 ft 283 kts 125°
2026-04-25 18:06 47.92145 16.53692 3796 ft 286 kts 125°
2026-04-25 18:07 47.91209 16.56263 3324 ft 284 kts 105°
2026-04-25 18:07 47.91088 16.59022 3080 ft 258 kts 80°
2026-04-25 18:07 47.91378 16.61545 3028 ft 238 kts 73°
2026-04-25 18:07 47.92083 16.63733 3024 ft 232 kts 41°
2026-04-25 18:08 47.93405 16.64935 3036 ft 220 kts
2026-04-25 18:08 47.94881 16.64930 3036 ft 208 kts 346°
2026-04-25 18:08 47.96257 16.64452 3028 ft 198 kts 341°
2026-04-25 18:08 47.97549 16.63916 2869 ft 187 kts 340°
2026-04-25 18:09 47.98748 16.63407 2627 ft 170 kts 339°
2026-04-25 18:09 47.99820 16.62955 2451 ft 150 kts 338°
2026-04-25 18:09 48.00773 16.62554 2221 ft 135 kts 337°
2026-04-25 18:09 48.01075 16.62425 2157 ft 133 kts 336°
2026-04-25 18:10 48.02534 16.61806 1939 ft 127 kts 336°
2026-04-25 18:10 48.03368 16.61455 1765 ft 120 kts 336°
2026-04-25 18:10 48.04171 16.61116 1594 ft 123 kts 335°
2026-04-25 18:10 48.05022 16.60753 1418 ft 130 kts 337°
2026-04-25 18:11 48.05889 16.60387 1246 ft 129 kts 339°
2026-04-25 18:11 48.06756 16.60024 1067 ft 132 kts 340°
2026-04-25 18:11 48.07661 16.59659 899 ft 137 kts 339°
2026-04-25 18:11 48.08542 16.59285 730 ft 127 kts 338°
2026-04-25 18:12 48.09395 16.58922 653 ft 122 kts 339°
2026-04-25 18:12 48.10101 16.58613 631 ft 86 kts 344°
2026-04-25 18:12 48.10527 16.58430 614 ft 42 kts 345°
2026-04-25 18:12 48.10689 16.58364 627 ft 21 kts 343°
2026-04-25 18:13 48.10842 16.58296 623 ft 24 kts 345°
2026-04-25 18:13 48.11035 16.58217 624 ft 32 kts 344°
2026-04-25 18:13 48.11256 16.58123 614 ft 35 kts 344°
2026-04-25 18:14 48.11723 16.57925 623 ft 35 kts 344°
2026-04-25 18:14 48.11851 16.57774 621 ft 19 kts 292°
2026-04-25 18:14 48.11859 16.57705 619 ft 0 kts 270°
2026-04-25 18:14 48.11859 16.57703 619 ft 2 kts 270°
2026-04-25 18:15 48.11833 16.57530 618 ft 26 kts 254°
2026-04-25 18:15 48.11819 16.57332 622 ft 18 kts 285°
2026-04-25 18:15 48.11857 16.57156 613 ft 18 kts 285°
2026-04-25 18:15 48.11902 16.57000 614 ft 12 kts 297°
2026-04-25 18:16 48.11933 16.56905 603 ft 6 kts 287°
2026-04-25 18:16 48.11914 16.56854 604 ft 6 kts 216°
2026-04-25 18:16 48.11886 16.56829 618 ft 0 kts 208°